Overview Statistics Trail Chart Weather Telemetry Raw packets
 

This is the latest recevied weather packets stored in our database for station/object KD5GAT-51. If no packets are shown the sender has not sent any weather packets the latest 10 day(s).

<< 7 8 9 10 11 12 13 >>
Time Temp. Humidity Pressure Rain* Wind** Luminosity Snow
1787961136 37.22° C 41% 1015.2 hPa - - - -
1787960235 37.78° C 39% 1015.2 hPa - - - -
1787959335 40.56° C 35% 1015.1 hPa - - - -
1787958435 41.11° C 35% 1015.4 hPa - - - -
1787957535 41.11° C 33% 1015.3 hPa - - - -
1787956635 40° C 36% 1015.3 hPa - - - -
1787955734 40.56° C 35% 1015.2 hPa - - - -
1787954834 39.44° C 38% 1015.6 hPa - - - -
1787953934 38.33° C 40% 1015.7 hPa - - - -
1787953034 39.44° C 37% 1015.9 hPa - - - -
1787952134 40.56° C 36% 1016.1 hPa - - - -
1787951234 39.44° C 38% 1016.2 hPa - - - -
1787950333 42.22° C 34% 1016.5 hPa - - - -
1787949433 42.22° C 34% 1016.9 hPa - - - -
1787948533 41.67° C 36% 1017.3 hPa - - - -
1787947633 42.78° C 34% 1017.7 hPa - - - -
1787946733 42.22° C 36% 1018 hPa - - - -
1787945833 41.67° C 37% 1018.1 hPa - - - -
1787944941 41.11° C 38% 1018.5 hPa - - - -
1787944041 41.11° C 39% 1018.6 hPa - - - -
1787943140 40.56° C 40% 1019 hPa - - - -
1787942240 40.56° C 39% 1019.2 hPa - - - -
1787941340 39.44° C 42% 1019.4 hPa - - - -
1787940439 38.33° C 45% 1019.7 hPa - - - -
1787939539 38.89° C 45% 1019.8 hPa - - - -

* Rain since midnight (hover to see other rain measurements)
** Current wind speed in m/s (hover to see current wind gust speed)